Regional Weather Roundup
Issued by NWS

Home | Current Version | Previous Version | Graphics & Text | Print | Product List | Glossary On
Versions: 1 2 3 4 5 6 7 8 9 10 11 12 13 14 15 16 17 18 19 20 21 22 23 24 25 26 27 28 29 30 31 32 33 34 35 36 37 38 39 40 41 42 43 44 45 46 47 48 49 50
000
ASUS43 KIND 160909
RWRIN

WEATHER ROUNDUP FOR INDIANA
NATIONAL WEATHER SERVICE INDIANAPOLIS IN
400 AM EST MON JAN 16 2017

NOTE: "FAIR" INDICATES FEW OR NO CLOUDS BELOW 12,000 FEET WITH NO
SIGNIFICANT WEATHER AND/OR OBSTRUCTIONS TO VISIBILITY.

* - STATION DOES NOT REPORT WEATHER SUCH AS PRECIPITATION OR FOG.

+ - STATION NOT QUALITY CONTROLLED BY THE NATIONAL WEATHER SERVICE.
    USE DATA WITH CAUTION...ESPECIALLY DEWPOINT AND RELATIVE
    HUMIDITY OBSERVATIONS.

INZ001>003-010>013-019-020-161000-
NORTHWEST INDIANA

CITY           SKY/WX    TMP DP  RH WIND       PRES   REMARKS
GARY /AIRPORT/ MIX PCPN  34  28  79 CALM      30.30S
KNOX *+        CLOUDY    32  14  47 E3        30.29S
LA PORTE +     CLOUDY    31  27  84 E5        30.29F WCI  26
MICHIGAN CITY+ CLOUDY    32  27  80 CALM      30.29F
MONTICELLO +   CLOUDY    32  29  89 E3        30.27F
RENSSELAER +     N/A     32  32 100 E6        30.28S WCI  26
VALPARAISO     CLOUDY    33  28  81 E6        30.28F WCI  28

$$

LMZ046-743>745-161000-
SOUTHERN LAKE MICHIGAN

STATION/POSITION TIME  TEMP    WIND        PRES    WAVE
                       AIR SEA DIR/SP/G            HT
                 (UTC) (F)     (DEG/KT/KT) (MB)    (FT)
BURNS HARBOR     0840   33     150/  6/  9 1026.1S
MICHIGAN CITY    0840   32     120/  6/  7   N/A

$$

INZ004-005-014>016-021>024-161000-
NORTH CENTRAL INDIANA

CITY           SKY/WX    TMP DP  RH WIND       PRES   REMARKS
GOSHEN         CLOUDY    29  24  82 SE5       30.29F HAZE    WCI  24
LOGANSPORT +   CLOUDY    32  30  93 E7        30.29F WCI  26
PERU/GRISSOM   CLOUDY    33  31  96 E6        30.27F WCI  27
ROCHESTER +    MOCLDY    34  32  93 SE5       30.29F WCI  30
SOUTH BEND     CLOUDY    30  24  78 E3        30.29F
WARSAW +       CLOUDY    32  27  80 E3        30.29F

$$

INZ006>009-017-018-025>027-161000-
NORTHEAST INDIANA

CITY           SKY/WX    TMP DP  RH WIND       PRES   REMARKS
ANGOLA *+      MOCLDY    27  25  93 CALM      30.30S
AUBURN +       CLOUDY    30  27  86 CALM      30.32S FOG
FORT WAYNE     CLOUDY    31  27  85 E3        30.30S
HUNTINGTON +   CLOUDY    32  29  91 E3        30.29F
KENDALLVILLE + CLOUDY    29  25  86 SE3       30.30S

$$

INZ028-029-035-036-043>045-051>053-161000-
WEST CENTRAL INDIANA

CITY           SKY/WX    TMP DP  RH WIND       PRES   REMARKS
CRAWFORDSVL +  CLOUDY    32  32 100 E5        30.26S FOG     WCI  27
GREENCASTLE +  CLOUDY    34  34 100 E7        30.26F FOG     WCI  28
LAFAYETTE      CLOUDY    34  31  88 E6        30.27F FOG     WCI  29
TERRE HAUTE    CLOUDY    37  35  92 E6        30.25F FOG

$$

INZ030>032-037>040-046>048-054>057-064-065-161000-
CENTRAL INDIANA

CITY           SKY/WX    TMP DP  RH WIND       PRES   REMARKS
CP ATTERBURY + RAIN      36  36 100 E3        30.27F
FISHERS *+     CLOUDY    34  34 100 CALM      30.27F
FRANKFORT +    CLOUDY    35  33  93 E6        30.28F FOG     WCI  30
GREENWOOD *+   CLOUDY    37  36  95 E5        30.28S
INDIANAPOLIS   CLOUDY    36  33  89 E7        30.27S FOG
-EAGLE CREEK   CLOUDY    36  32  85 E3        30.27S
KOKOMO +       CLOUDY    33  31  92 E6        30.29F FOG     WCI  28
MARION +       CLOUDY    32  30  93 E6        30.30S FOG     WCI  26
MT COMFORT *+  CLOUDY    34  32  93 E5        30.28S WCI  30
SHELBYVILLE    CLOUDY    37  34  89 E6        30.27S FOG
ZIONSVILLE +   CLOUDY    33  32  96 SE7       30.27F FOG     WCI  27

$$

INZ033-034-041-042-049-050-058-059-161000-
EAST CENTRAL INDIANA

CITY           SKY/WX    TMP DP  RH WIND       PRES   REMARKS
MUNCIE         CLOUDY    34  31  88 E6        30.28F FOG     WCI  29

$$

INZ060-061-067>069-081>083-085>088-161000-
SOUTHWEST INDIANA

CITY           SKY/WX    TMP DP  RH WIND       PRES   REMARKS
EVANSVILLE     CLOUDY    41  39  93 E3        30.24F FOG
HUNTINGBURG *+ CLOUDY    40  39  97 E5        30.24F
WASHINGTON +   CLOUDY    39  38  94 E5        30.25S

$$

INZ062-063-066-070>080-084-089>092-161000-
SOUTH CENTRAL AND SOUTHEAST INDIANA

CITY           SKY/WX    TMP DP  RH WIND       PRES   REMARKS
BLOOMINGTON    CLOUDY    37  35  92 SE6       30.24F FOG
MADISON *+     CLOUDY    37  37 100 E5        30.28F
NORTH VERNON + CLOUDY   N/A N/A N/A CALM      30.28S FOG
SEYMOUR +      CLOUDY    39  39 100 E3        30.27F FOG

$$





USA.gov is the U.S. government's official web portal to all federal, state and local government web resources and services.